Tracking 30313 objects as of 22-Apr-2025
HD Live streaming from Space Station
objects crossing your sky now

THORAD DELTA 1 DEB

Track THORAD DELTA 1 DEB now!
10-day predictions


NORAD ID: 8561
Int'l Code: 1974-089CY
Perigee: 1,351.5 km
Apogee: 1,448.2 km
Inclination: 101.5 °
Period: 113.6 minutes
Semi major axis: 7770 km
RCS: 0.0788 m2 (small)
Launch date: November 15, 1974
Source: United States (US)
Launch site: AIR FORCE WESTERN TEST RANGE (AFWTR)

Note: This is SATELLITE DEBRIS
Your satellite tracking list
Your tracking list is empty




NASA's NSSDC Master Catalog

Two Line Element Set (TLE):
1 08561U 74089CY  25111.06787969  .00000511  00000-0  28843-2 0  9994
2 08561 101.5264 150.5384 0062197 290.8772 126.0281 12.67354247321835
Source of the keplerian elements: AFSPC